Starlink 6377

operational
NORAD ID: 57341 Int'l Des: 2023-099 Owner: SPXS Country: US Constellation: starlink
LEOCIRCULAR

关于 Starlink 6377

正在加载描述...

实时位置

正在加载3D地球...

即将过境

高度历史

Altitude vs Time

uPlot chart will show altitude changes over time

两行轨道根数

1 57341U 23099P 25305.10011202 -.00000472 00000-0 -19880-4 0 9990
2 57341 43.0049 227.6689 0001105 265.8309 94.2407 15.02529952126771
Epoch: Nov 1, 2025 • Age: 24 hours

当前状态

高度 562.6 km
速度 7.59 km/s
星下点 41.46°N, 149.11°W
发射日期 Jul 16, 2023
运行时间 2.2 years
类型 internet

技术详情

分类 Payload
质量 305.00 kg
干质量 290.00 kg
总质量 305.00 kg
长度 0.20 m
直径 2.80 m
跨度 9.00 m
形状 Box + pan
制造商 SPXS
平台类型 Starlink
阶段状态 In Orbit
所有者/国家 SPXS/US

大型星座

Loading constellations...